Location: Luxembourg
(49.6117°N, 6.1300°E)
Time: 21:58:51
(UTC+02:00)

Tiangong 2 - Pass Details

Date: 22 May 2019
Orbit: 376 x 389 km, 42.8° (Epoch: 18 June)

Event Time Altitude Azimuth Distance (km) Brightness Sun altitude
Rises 22:33:09 0° 239° (WSW) 2,232 5.1 -9.5°
Reaches altitude 10° 22:35:30 10° 223° (SW) 1,381 3.8 -9.7°
Maximum altitude 22:37:56 21° 171° (S) 911 2.5 -10.0°
Enters shadow 22:39:15 16° 137° (SE) 1,073 2.6 -10.1°
